GFSNGP_sfc_rhum_000.txt.gz
RH
36 27 24 24 25 24 25 32 51 42 32 27 31 31 42 42 41 41 45 46 47 48 44 39 40 37 34 37 41 50 54 51 56 51 47 49 53 51 52 51 44 44 43 48
74 28 27 36 28 26 24 23 26 29 32 27 37 38 44 46 47 51 49 47 44 43 38 35 33 30 29 31 34 45 43 49 47 48 50 53 54 54 51 48 45 47 50 51
80 58 67 87 64 30 26 25 30 54 35 37 44 45 44 49 51 52 48 46 46 38 33 30 27 26 27 27 28 38 40 41 50 71 65 64 51 44 42 49 52 56 55 54
95 92 89 37 26 26 31 27 26 26 35 42 47 45 42 51 54 50 49 46 39 30 29 28 27 25 26 24 27 29 32 38 54 62 60 53 52 51 48 49 54 55 59 57
100 71 53 41 35 40 48 47 32 44 48 49 48 46 48 47 46 46 44 36 27 26 27 26 24 25 26 28 28 28 29 44 48 64 50 54 54 54 51 51 55 58 58 67
96 94 81 60 32 33 37 64 50 55 61 63 53 82 58 48 45 38 28 24 24 24 21 22 25 25 27 28 30 34 53 52 48 43 50 53 59 56 51 52 50 64 72 74
91 93 76 38 33 37 72 77 65 68 64 63 67 71 59 44 35 26 24 23 24 21 22 24 24 26 30 30 31 42 47 54 60 56 48 49 52 46 51 52 62 87 88 83
91 95 88 39 38 75 70 69 68 63 63 66 62 61 42 34 29 25 23 21 19 22 24 26 25 28 31 32 37 46 54 55 56 51 46 35 47 53 53 56 73 86 87 86
69 74 48 43 51 54 74 74 71 70 59 56 57 46 36 33 29 26 22 20 20 22 26 27 27 28 33 36 41 48 54 52 51 45 40 44 52 53 56 62 81 83 73 77
75 45 39 44 49 62 62 64 58 55 56 54 46 40 34 31 29 26 22 22 23 27 27 30 30 31 39 42 46 50 52 53 50 50 56 52 45 49 58 83 88 80 78 79
56 44 43 54 60 62 64 58 58 51 50 38 35 33 32 30 28 26 25 26 27 29 31 35 33 38 43 46 54 51 57 55 62 74 67 58 49 63 80 74 74 84 86 86
78 52 62 65 61 59 62 59 51 49 38 33 32 31 28 30 30 27 29 28 28 32 37 36 38 47 52 53 58 76 78 74 74 77 78 66 61 64 72 70 62 61 62 76
49 56 63 65 56 50 50 39 36 36 34 32 27 28 29 30 30 38 31 33 38 41 41 49 54 58 57 62 71 78 80 80 75 75 77 80 84 83 85 81 74 69 69 70
52 60 65 60 58 50 39 36 39 30 26 27 28 29 30 34 36 38 41 45 44 43 51 60 66 65 65 67 67 77 78 80 84 84 87 90 83 79 84 86 91 91 89 81
54 56 55 47 47 37 33 29 29 25 27 30 32 35 42 42 46 49 51 51 56 64 60 59 70 77 68 72 69 73 74 79 91 87 92 91 88 91 88 88 86 84 88 86
52 48 42 40 36 33 28 26 28 32 33 37 43 60 51 53 55 58 64 64 85 85 87 89 94 83 80 72 61 66 76 83 86 82 91 90 92 90 88 88 86 86 88 93
69 62 51 47 35 30 29 31 35 46 50 55 70 78 79 82 88 80 76 81 87 91 94 99 98 78 84 74 68 68 83 88 84 90 86 95 92 90 91 91 90 88 91 95
44 44 40 30 30 35 52 65 77 78 79 76 88 92 94 94 91 87 87 89 90 91 92 97 96 90 87 78 77 84 87 83 91 94 92 93 94 89 86 90 91 92 93 93
32 29 30 30 36 74 87 91 94 92 96 92 96 94 90 91 92 92 89 86 88 92 85 97 96 88 91 83 85 86 88 91 91 90 91 94 93 92 93 92 92 94 92 94
30 31 41 42 60 95 91 98 99 96 84 89 94 93 92 90 92 85 88 93 88 90 95 99 96 95 92 85 89 81 92 93 92 89 92 93 94 92 94 89 90 92 93 94
65 78 87 94 93 94 100 94 94 92 89 94 97 95 94 88 87 89 92 85 78 92 100 99 97 88 84 83 80 90 91 94 94 92 92 92 93 91 93 94 92 92 94 94
68 82 96 99 94 92 96 100 100 98 97 98 97 96 96 87 88 85 84 88 82 92 98 98 95 89 84 80 82 98 96 90 92 92 93 92 92 94 95 94 94 93 93 94
81 91 93 100 99 95 99 100 99 100 99 97 96 97 95 90 91 94 89 85 92 98 95 99 98 92 89 96 99 97 98 93 89 88 91 93 93 91 93 93 94 94 93 92
84 78 85 95 100 97 95 86 90 99 100 99 98 100 99 99 96 87 86 90 93 99 100 100 99 93 88 96 99 96 95 95 93 92 91 89 92 92 91 90 92 92 93 92
91 87 92 98 97 91 84 77 80 86 91 93 91 86 94 95 99 89 96 98 98 99 100 98 98 98 97 96 94 95 95 93 93 94 93 93 93 92 92 92 94 93 94 94
71 69 66 70 68 67 70 71 81 80 87 93 90 96 100 99 100 98 97 97 98 98 99 100 100 99 99 98 95 94 95 95 91 91 92 92 92 93 92 90 93 94 94 94
67 77 68 68 66 68 71 73 92 98 99 100 98 95 94 96 97 97 97 100 100 100 100 100 100 99 98 98 97 97 98 96 90 90 94 95 94 95 94 94 92 92 92 94

GFSNGP_sfc_rhum_006.txt.gz
RH
54 53 49 46 48 48 47 58 66 57 59 69 67 69 68 68 65 61 62 59 57 59 56 41 39 40 41 45 46 47 48 50 67 86 81 78 74 80 83 86 78 55 50 54
71 66 69 59 52 53 49 42 46 67 76 64 64 71 73 68 66 64 60 61 60 56 44 38 39 40 40 42 45 49 50 64 75 82 81 84 84 86 91 90 55 50 54 63
80 89 83 70 58 56 50 57 49 63 72 68 76 76 76 71 66 64 64 61 58 56 38 40 39 38 38 40 44 49 54 65 69 81 84 88 89 92 92 71 56 58 62 66
82 77 64 58 49 47 71 70 69 71 71 68 75 78 71 65 65 65 61 57 55 38 36 37 37 36 39 41 44 51 68 66 70 74 79 82 88 85 86 61 60 61 75 75
79 92 56 50 50 53 55 86 74 76 75 70 74 72 75 62 60 60 58 46 41 38 36 37 36 37 40 44 46 50 66 70 72 76 79 81 82 87 90 75 61 74 76 76
99 70 61 57 57 52 51 80 78 79 81 78 71 94 83 71 69 58 41 40 36 34 34 36 35 38 43 47 52 56 69 71 73 78 81 82 86 90 87 59 70 74 81 86
98 92 81 56 55 55 76 66 85 83 86 84 87 83 73 80 68 43 41 36 35 36 36 37 39 44 48 52 54 56 66 70 74 75 77 79 84 70 59 74 80 89 86 89
98 98 85 57 56 66 69 91 89 87 84 85 81 76 76 62 46 42 36 36 36 40 42 45 45 48 49 54 55 61 67 70 71 71 64 53 64 65 70 76 83 93 94 95
79 81 61 59 62 74 86 90 92 87 81 76 76 75 52 49 45 41 39 39 39 43 46 47 49 49 52 56 62 67 72 73 73 71 70 71 70 71 79 84 94 94 91 96
81 64 67 64 88 88 86 88 87 81 78 70 72 55 49 46 46 43 41 41 43 48 54 59 57 54 60 63 65 71 74 76 80 82 84 81 72 74 80 96 96 92 95 95
80 69 84 84 86 88 84 82 82 75 74 68 47 47 46 46 48 47 47 49 53 60 65 62 61 69 71 72 77 73 77 79 83 93 86 84 74 79 89 75 81 94 95 94
73 64 68 77 87 81 82 79 76 70 44 41 42 46 46 52 53 53 59 59 61 64 68 67 71 70 75 86 87 86 85 89 94 97 96 88 84 82 77 75 74 74 73 83
70 68 78 82 82 74 75 70 59 44 39 46 47 50 53 56 57 66 61 62 66 69 70 80 78 84 81 88 92 98 99 98 94 94 97 97 97 96 93 83 81 81 75 73
72 82 89 85 85 72 47 44 45 41 45 50 52 58 60 61 65 68 67 68 72 71 80 82 87 89 87 84 87 94 93 93 95 95 97 97 98 93 94 95 97 95 87 82
86 78 80 74 60 46 37 39 46 51 54 57 61 63 62 66 73 77 76 77 80 89 87 81 82 88 80 91 90 91 92 95 94 97 95 96 95 96 97 95 96 97 98 96
77 69 73 66 40 38 42 48 53 58 58 58 61 64 67 79 84 84 86 88 96 89 84 79 79 86 86 91 88 92 88 92 96 96 95 92 96 97 96 96 97 96 97 98
84 80 64 57 53 52 52 55 56 60 63 63 65 80 82 90 94 90 90 93 94 92 83 82 86 79 89 93 95 94 94 89 91 94 97 95 97 98 96 97 96 96 96 98
55 59 57 59 61 69 72 71 76 69 69 72 86 97 98 98 96 94 95 95 92 83 82 83 85 89 94 97 94 93 95 91 94 93 94 94 97 98 98 96 97 98 97 98
61 67 62 57 61 68 71 78 89 90 98 98 98 94 94 97 98 97 95 96 91 84 80 88 90 92 98 98 97 98 97 96 97 98 94 95 100 97 98 97 96 96 97 97
57 62 59 59 69 78 74 89 93 96 91 97 98 99 100 96 96 96 95 95 87 81 90 91 97 90 98 98 98 98 97 97 96 98 98 97 100 98 97 96 95 96 98 98
68 72 82 84 87 93 96 95 98 98 94 97 97 97 98 98 97 98 100 97 86 90 92 98 96 94 98 97 98 99 98 96 97 96 94 92 98 99 96 95 95 96 98 98
74 82 80 86 92 94 94 96 98 96 94 94 93 93 96 92 95 99 95 95 88 95 94 96 93 93 98 98 98 98 97 96 96 95 96 97 98 98 97 96 98 95 96 97
81 88 90 92 94 92 97 96 97 97 97 95 96 98 98 91 96 98 96 90 94 90 92 92 92 94 98 99 99 98 97 97 97 97 97 96 92 93 93 93 94 92 93 93
92 85 93 94 98 99 98 86 92 92 94 94 96 95 94 96 94 97 96 97 97 94 93 94 94 95 98 99 98 98 98 96 96 96 96 96 96 93 93 92 93 93 90 91
93 91 92 94 93 92 90 89 94 94 94 94 97 94 98 99 99 96 98 95 94 95 95 92 97 98 99 99 98 97 97 97 97 97 97 97 97 97 96 94 94 94 95 93
83 92 92 86 92 94 94 96 98 98 100 100 99 98 96 95 96 95 93 94 95 96 92 88 94 97 98 98 98 98 98 96 96 97 97 97 97 97 97 96 93 94 94 96
90 96 95 93 93 94 98 99 98 97 98 98 98 98 98 96 96 96 97 97 97 95 96 96 95 96 95 96 97 96 98 98 97 96 95 97 97 97 97 96 93 92 95 97

GFSNGP_sfc_rhum_009.txt.gz
RH
63 63 54 51 46 56 60 61 67 59 60 61 74 77 77 75 73 68 66 60 59 61 47 38 42 42 42 45 46 49 49 60 73 84 84 82 83 84 86 89 88 92 74 59
77 71 72 59 48 51 52 50 59 70 80 72 72 78 77 73 70 68 60 55 55 55 44 39 40 39 39 42 46 50 51 63 70 73 81 88 90 92 88 91 94 61 71 66
59 87 76 57 57 53 51 59 59 82 70 74 83 78 79 76 71 67 59 56 57 59 42 42 41 41 42 41 46 50 54 66 72 76 83 86 87 94 94 93 78 74 65 70
81 77 54 44 53 53 57 74 75 77 75 72 77 81 76 71 70 68 62 61 61 53 41 43 42 41 43 42 47 52 57 72 73 77 79 82 88 89 91 93 92 70 76 76
77 82 52 39 58 72 63 66 75 77 76 75 82 78 78 68 65 66 66 62 53 43 40 40 40 39 43 47 50 54 57 71 75 78 83 86 88 90 91 93 81 78 78 82
98 63 51 44 61 55 54 74 80 77 81 82 81 96 85 71 68 66 62 44 42 39 38 38 39 42 47 51 54 58 61 72 75 80 85 85 86 92 90 66 77 78 77 86
99 84 73 53 56 56 70 60 84 79 80 83 85 82 70 77 78 60 42 39 42 40 42 44 46 48 52 54 59 57 65 70 73 75 74 74 73 69 63 79 82 87 87 88
97 97 69 56 60 67 67 84 80 86 84 82 77 77 77 78 47 40 40 40 41 45 48 50 51 56 58 61 56 62 69 74 75 74 70 67 77 74 81 86 81 91 96 96
75 76 59 58 65 66 76 84 89 87 84 79 82 81 77 54 47 42 39 43 44 50 53 55 58 61 66 64 67 71 77 79 78 77 79 80 75 79 81 85 94 92 91 96
78 61 65 63 69 84 86 84 89 83 81 80 76 67 51 49 46 44 46 50 51 56 62 68 66 66 75 75 76 83 83 80 77 80 84 84 74 74 81 96 96 87 96 96
84 71 77 74 80 84 88 88 86 80 78 74 68 52 45 47 49 50 52 55 58 64 71 71 71 79 76 79 90 89 86 78 83 89 88 79 73 80 88 77 80 93 95 94
77 62 71 66 74 86 90 89 83 78 64 50 43 44 47 54 55 56 61 62 64 69 75 74 81 83 82 86 92 97 95 95 98 99 92 85 85 86 75 78 79 79 79 86
58 63 69 77 81 86 83 81 80 53 47 43 45 47 52 56 59 67 65 65 70 76 78 84 90 90 89 90 93 95 94 91 98 99 95 93 97 97 96 82 78 80 82 78
73 84 89 89 89 82 62 58 50 42 47 49 53 55 58 59 65 67 70 75 78 82 90 92 86 77 86 91 91 95 92 98 99 99 95 96 97 96 98 97 96 95 85 85
76 81 78 83 75 52 45 44 48 53 55 59 60 60 60 62 66 74 82 83 86 91 91 77 72 74 78 87 94 98 93 96 98 96 95 95 93 96 98 97 97 98 99 98
90 81 81 66 47 42 47 55 62 64 60 62 63 64 63 74 82 85 85 86 96 96 91 84 79 78 83 86 93 98 95 94 94 91 92 93 95 98 98 98 97 98 98 97
85 83 64 61 70 82 84 81 62 63 68 66 61 74 77 91 94 87 89 95 97 96 93 91 87 73 84 89 98 98 97 94 90 92 95 97 98 98 98 98 96 96 96 97
68 69 73 80 85 87 76 77 77 69 68 69 91 96 96 97 94 93 94 95 97 96 92 87 88 87 91 92 98 99 99 97 93 91 92 95 94 97 99 98 98 97 97 98
84 83 80 82 84 87 82 79 88 86 99 97 97 93 95 97 99 98 97 99 97 96 87 91 91 96 96 91 96 99 98 98 97 97 97 98 98 98 100 99 98 97 96 97
92 89 74 63 71 87 86 90 93 89 86 97 98 100 99 99 97 97 98 99 95 91 91 91 91 96 95 92 98 98 98 98 97 96 99 100 98 97 98 99 97 96 97 98
72 76 87 90 89 92 93 95 97 98 97 98 96 97 96 95 94 96 99 99 92 92 91 90 92 92 90 94 96 98 98 98 97 97 97 96 95 94 96 96 96 96 94 98
76 84 85 88 91 92 94 98 98 98 97 96 95 94 94 96 96 91 97 98 94 96 96 95 94 93 93 94 97 98 98 98 97 97 97 97 96 95 94 92 94 95 95 95
88 92 93 92 93 91 96 97 97 98 97 96 96 95 98 98 95 98 98 93 96 97 97 97 97 95 94 97 98 98 98 98 98 97 95 94 94 95 95 93 91 92 93 93
90 80 92 95 99 99 94 84 92 93 95 94 95 95 97 97 97 96 95 98 100 98 95 94 95 94 97 98 98 98 98 98 98 97 97 97 97 97 97 96 95 94 92 90
93 90 93 94 92 93 89 88 94 94 96 96 99 98 95 96 98 97 98 96 95 95 98 96 90 91 90 94 96 97 98 96 95 96 96 97 96 96 96 96 96 96 96 93
85 95 95 90 94 95 94 96 99 98 98 98 98 98 97 98 98 97 96 96 97 99 99 98 96 94 93 91 91 91 91 92 94 97 97 95 94 94 94 95 96 97 97 96
94 97 95 95 94 95 97 96 97 95 95 98 97 92 95 96 97 97 99 98 98 99 98 97 97 96 95 96 96 95 94 93 93 92 92 92 92 95 93 95 95 96 97 97

GFSNGP_sfc_rhum_012.txt.gz
RH
73 70 61 54 47 62 56 57 60 58 58 51 67 73 80 79 78 75 71 67 66 63 54 39 42 44 45 47 49 50 51 54 65 76 80 86 89 91 92 92 85 87 87 65
79 76 72 62 51 53 60 58 64 66 63 64 81 83 83 78 76 75 70 62 58 58 46 40 42 44 44 45 48 51 54 56 66 75 78 82 88 89 93 94 94 94 76 73
53 82 68 56 52 52 54 56 55 71 55 83 86 82 81 83 76 74 68 56 56 55 53 44 44 46 44 44 48 53 57 58 68 77 80 82 85 89 92 93 91 83 77 71
78 74 52 42 53 55 58 62 66 72 74 78 81 85 80 77 76 75 65 55 56 62 60 46 47 43 46 46 49 54 57 61 72 78 81 84 88 90 91 92 94 91 77 78
75 79 50 35 63 70 65 54 74 72 82 82 84 78 80 74 72 72 69 65 63 56 47 44 44 42 45 49 52 54 58 62 70 80 83 87 89 89 92 94 86 78 78 81
94 62 51 44 53 60 55 75 74 74 81 85 80 94 72 74 72 68 64 56 44 42 40 41 43 48 51 54 58 61 63 64 74 78 83 84 82 85 88 69 70 78 80 83
99 82 67 50 59 57 69 62 85 75 79 89 85 80 75 77 74 69 50 39 42 42 45 49 51 55 57 63 65 62 66 72 75 77 79 77 80 80 75 77 84 91 89 86
96 92 59 54 60 65 66 76 81 83 83 79 80 77 80 76 61 42 40 41 43 47 51 54 57 63 69 71 68 73 76 79 80 81 75 72 84 77 80 90 84 95 98 97
68 71 54 57 67 65 69 68 82 84 84 75 84 81 79 62 45 43 40 44 47 52 55 57 64 69 75 76 79 83 89 88 85 83 78 80 86 77 81 86 93 93 89 96
75 57 64 65 61 68 75 75 80 85 84 82 83 84 69 48 46 43 43 46 51 55 59 67 70 72 82 80 83 92 93 90 87 85 82 82 75 72 81 97 96 90 97 96
82 71 73 67 76 70 78 84 86 86 84 81 81 68 51 46 48 47 48 55 56 61 69 73 75 82 85 85 90 95 96 97 95 94 95 87 72 78 86 77 82 94 95 95
80 56 58 57 58 81 85 87 88 86 86 76 67 51 48 54 53 55 59 59 59 65 75 77 84 91 91 91 93 96 95 93 87 89 97 94 81 83 77 80 79 81 82 87
53 61 66 64 80 82 85 89 89 78 62 51 48 50 55 57 64 64 62 63 67 74 82 90 93 93 90 90 94 94 98 94 91 97 99 98 98 95 95 84 77 78 81 84
73 83 82 87 83 88 85 79 56 48 48 51 56 60 67 64 61 64 66 70 76 83 90 92 90 87 82 85 92 93 97 98 98 98 99 98 96 96 97 98 97 95 83 87
77 81 80 85 64 55 52 52 56 61 67 73 77 78 69 58 62 67 75 80 83 89 90 88 86 83 78 86 92 93 98 98 98 98 97 95 96 97 97 97 97 97 98 96
89 88 74 58 53 56 61 74 88 97 99 90 84 70 62 66 73 78 81 84 95 95 88 94 94 83 83 85 86 91 97 99 99 97 94 93 96 97 96 98 98 97 98 96
90 73 70 85 92 91 92 87 88 91 92 83 70 72 71 83 90 82 85 94 96 96 94 95 92 84 86 91 92 93 98 98 98 98 95 90 94 95 95 98 98 98 96 96
82 82 83 86 93 97 95 92 91 86 76 71 90 96 96 95 88 89 93 95 97 96 93 92 92 89 90 93 93 93 97 99 98 97 97 97 94 92 95 97 97 98 97 98
88 92 92 92 92 94 91 88 92 90 96 96 97 94 93 94 98 98 99 99 99 98 91 92 91 93 91 89 92 97 98 98 98 97 97 98 98 96 95 96 97 98 98 97
92 89 79 79 85 93 94 97 96 93 87 97 98 100 98 96 98 100 99 99 98 95 93 94 94 94 91 90 93 98 98 98 98 97 97 97 98 98 97 97 95 96 97 97
77 84 91 90 94 95 96 96 97 96 97 99 100 98 96 95 94 93 98 98 94 94 94 98 97 96 96 96 96 97 97 98 98 97 97 97 97 96 95 93 91 93 94 95
76 86 88 90 92 92 93 97 99 99 99 98 97 98 98 96 98 98 92 96 90 98 98 98 97 97 97 98 97 98 98 98 98 98 97 97 97 96 96 96 96 96 96 96
88 93 94 94 94 92 95 96 96 96 96 95 95 95 97 95 97 99 97 93 94 97 99 98 95 96 99 93 94 96 97 96 95 96 97 97 97 97 97 96 96 96 96 96
94 84 94 96 99 94 91 88 91 93 97 95 95 95 98 99 98 96 95 97 100 99 97 95 99 99 89 93 95 97 95 96 98 97 96 96 95 94 95 95 96 95 96 96
93 92 94 94 95 97 96 95 96 95 97 98 98 98 99 98 98 94 98 98 97 98 98 98 98 97 96 96 97 96 95 94 95 95 94 94 93 95 95 94 93 93 93 95
96 98 98 96 98 97 95 93 94 88 85 87 86 89 95 96 97 98 97 97 97 98 98 98 97 98 99 98 98 98 98 97 96 96 97 95 94 93 92 91 91 95 93 92
89 86 85 85 86 82 82 81 85 89 88 92 94 91 94 90 92 96 97 97 99 97 97 97 98 97 98 97 96 96 97 98 99 96 96 95 94 93 92 92 91 91 93 95

GFSNGP_sfc_rhum_015.txt.gz
RH
59 58 51 41 45 49 41 45 54 45 46 36 41 49 56 62 62 60 58 55 53 49 41 33 38 41 41 37 38 38 37 37 43 49 55 56 58 59 63 66 66 71 74 65
69 63 60 53 44 44 50 51 45 48 48 39 48 55 64 66 63 61 58 53 50 49 43 39 34 40 39 37 37 38 39 42 44 50 55 58 60 64 64 64 63 68 61 65
56 64 54 59 51 44 47 47 45 55 39 58 62 64 59 65 62 60 58 54 50 51 46 38 37 41 37 35 36 39 42 43 46 51 56 60 59 56 58 63 63 70 72 60
73 73 59 37 46 42 44 45 42 47 48 54 58 64 62 58 61 61 58 52 50 50 49 46 39 36 38 34 36 41 43 44 46 50 56 59 59 56 59 61 69 71 64 58
80 60 46 30 41 56 58 39 46 46 52 66 69 64 62 60 58 58 57 51 46 46 46 38 34 35 34 37 40 42 42 45 46 52 59 58 58 57 58 60 56 55 57 61
78 67 61 42 33 52 44 62 45 56 67 74 64 79 51 60 62 61 56 51 47 38 34 33 37 39 41 40 44 46 52 52 53 57 59 59 59 57 57 57 51 54 62 60
82 80 61 42 45 48 59 52 61 64 65 72 69 63 57 63 65 54 51 36 40 34 36 40 43 42 42 48 48 53 54 55 55 57 58 60 59 58 57 54 60 72 72 66
85 78 65 45 51 66 60 61 60 67 66 72 64 67 64 66 56 45 36 36 35 40 44 46 44 47 47 49 53 55 58 61 64 62 62 58 62 59 56 60 67 76 88 80
62 66 50 48 61 55 58 57 57 67 64 64 73 65 68 61 44 37 35 35 36 38 43 46 48 50 52 56 59 64 67 70 69 68 63 60 62 60 57 58 65 69 65 75
73 52 56 54 51 53 52 59 57 61 61 70 68 70 67 46 41 37 35 37 40 39 42 48 52 56 62 66 66 71 72 74 73 70 74 66 62 53 55 64 67 66 70 70
73 63 58 52 57 56 56 64 68 67 71 72 71 72 54 44 45 45 51 60 42 44 49 51 58 62 66 67 72 73 74 64 67 76 71 75 76 58 59 56 62 66 66 71
77 50 53 50 44 54 64 66 69 75 78 74 66 58 46 49 52 58 71 49 46 50 55 58 64 70 70 70 76 80 80 74 82 82 78 78 77 67 76 78 80 81 83 86
51 54 55 56 54 59 65 70 77 77 65 55 47 49 59 69 85 89 50 50 52 54 62 68 72 71 68 71 75 79 81 81 82 86 80 85 86 86 81 73 76 80 82 82
64 69 71 70 73 76 66 53 54 51 53 61 69 73 84 92 77 59 56 56 66 71 71 74 74 71 69 66 71 78 81 92 89 87 88 89 87 89 88 90 88 81 81 75
79 77 76 59 52 53 52 60 74 87 88 92 93 96 94 82 60 63 78 81 79 74 75 70 69 64 61 71 72 76 78 83 93 95 95 93 89 88 90 90 85 83 81 84
68 56 59 65 69 71 76 91 95 97 98 97 95 90 77 65 71 79 81 75 85 82 70 85 87 70 73 70 72 77 78 91 87 92 95 93 89 86 84 88 88 84 85 86
77 88 91 92 91 95 96 91 86 82 92 91 86 80 66 88 90 84 80 85 92 93 91 92 88 68 77 73 74 71 80 82 88 98 95 87 91 94 85 88 85 82 84 98
82 86 92 96 96 97 96 93 93 90 87 74 89 91 92 94 93 93 92 91 94 96 92 90 88 81 77 75 80 80 83 83 87 92 92 95 92 89 94 90 84 84 84 90
83 88 88 86 88 93 90 90 91 87 94 95 96 96 95 95 92 91 95 99 96 94 85 88 89 90 86 83 86 85 91 95 92 86 90 94 95 90 95 96 92 89 85 85
75 72 70 72 80 91 91 96 95 88 84 93 95 95 93 92 94 98 99 98 92 87 91 90 90 91 91 84 91 82 97 96 92 91 93 96 96 95 95 94 91 91 92 89
72 80 89 92 93 94 95 94 96 93 91 97 98 95 95 95 96 97 98 96 87 93 91 94 89 82 77 86 85 95 94 95 95 96 99 99 98 95 96 96 96 94 92 93
74 85 90 91 93 90 93 94 96 98 95 95 94 96 97 94 95 96 95 96 82 92 89 90 84 88 85 94 87 92 92 97 100 99 99 98 96 96 96 98 98 100 100 99
88 89 90 92 95 94 92 92 94 94 95 95 96 96 96 92 90 95 96 83 86 91 89 94 92 96 96 100 97 98 98 95 94 98 99 95 95 96 95 96 98 98 97 97
86 87 90 93 97 93 95 90 94 94 97 93 92 95 99 98 96 86 91 95 96 98 98 99 99 98 95 98 95 94 93 92 92 92 89 88 90 90 88 92 92 91 93 92
94 94 95 95 94 92 86 78 78 78 78 78 78 78 79 91 98 92 93 95 98 98 98 96 95 95 95 93 93 93 92 92 92 92 92 92 92 92 91 89 89 89 92 90
87 86 82 82 82 75 74 76 84 82 86 89 84 87 87 86 84 84 88 92 95 95 96 95 94 94 94 91 91 92 91 89 90 90 91 91 91 90 91 91 91 91 92 92
79 78 76 75 72 75 81 80 89 90 87 90 91 88 86 89 87 82 84 89 98 97 95 94 94 93 93 92 90 89 89 89 89 88 89 90 90 91 92 92 92 93 92 92

GFSNGP_sfc_rhum_021.txt.gz
RH
24 25 23 21 19 21 21 22 34 23 14 10 10 12 13 15 19 20 26 30 33 36 34 34 35 32 30 36 42 34 25 23 26 27 30 32 34 34 36 38 37 35 37 38
46 28 28 28 21 17 16 18 16 15 16 11 13 11 16 16 21 23 26 30 33 34 32 33 32 31 30 42 38 31 28 28 27 28 30 34 33 37 37 36 35 37 38 39
35 33 35 62 40 24 17 16 18 27 18 13 17 19 19 18 22 25 27 30 33 33 33 32 30 30 30 37 30 30 28 26 27 29 31 32 30 29 32 36 39 40 40 43
52 69 80 17 17 15 19 16 13 14 14 13 15 20 22 21 22 26 28 29 31 31 33 32 30 28 35 27 29 29 28 29 29 30 26 27 29 30 34 38 41 42 42 43
89 39 26 18 14 20 23 20 15 18 15 14 20 29 26 23 24 24 26 28 30 30 31 32 30 29 29 30 26 31 31 27 24 26 29 30 30 33 37 40 43 42 39 42
56 86 88 33 24 26 25 29 19 19 21 20 25 43 22 25 24 25 25 27 30 30 32 32 31 28 28 36 39 28 26 25 26 27 28 30 34 39 40 43 42 37 38 41
64 82 47 21 22 28 37 41 29 27 25 28 30 28 36 31 25 26 26 28 31 33 34 33 27 33 37 34 38 25 28 28 28 29 31 35 39 40 44 45 46 54 56 56
68 96 78 21 28 40 41 30 27 30 29 37 36 34 32 34 32 30 31 33 34 34 30 31 31 46 55 44 26 31 36 36 35 34 37 38 44 46 46 46 53 58 81 66
39 43 29 24 25 23 28 34 33 33 30 31 34 33 31 34 36 35 35 32 30 29 38 55 66 61 34 30 38 41 44 43 40 41 42 44 48 52 52 49 55 58 62 73
43 23 22 23 23 25 26 30 29 29 32 34 37 38 38 37 39 36 29 28 32 51 73 79 52 32 35 44 49 46 46 44 46 50 49 47 44 47 55 58 60 62 63 63
39 29 24 24 27 32 34 36 36 35 39 44 47 43 42 43 38 32 38 57 70 70 55 42 41 46 48 49 49 48 53 54 55 64 60 53 47 52 60 58 65 62 64 67
54 38 46 36 37 47 46 49 48 49 48 44 45 46 41 36 40 64 78 61 56 61 54 48 54 53 51 54 62 67 66 65 69 63 57 53 52 55 70 77 80 72 76 81
46 47 48 47 46 44 49 47 45 45 45 48 46 45 58 81 86 84 74 70 59 50 50 55 60 66 66 62 62 70 70 71 62 67 61 58 62 70 68 66 82 82 81 82
49 52 54 49 51 48 52 55 65 65 70 76 76 72 71 73 73 72 69 59 50 54 57 60 65 65 60 56 58 62 59 77 62 61 72 77 71 82 74 77 92 88 92 85
49 47 48 47 50 56 60 71 71 72 72 72 68 67 59 59 57 56 51 55 59 60 57 53 52 47 37 47 52 60 61 59 67 80 81 82 84 84 86 84 84 83 79 84
51 48 52 66 71 67 64 67 70 70 68 59 53 56 52 49 45 42 44 49 67 61 54 89 90 58 56 51 50 50 54 78 79 75 77 78 80 80 77 92 86 84 88 81
72 74 78 76 72 70 66 56 50 58 59 62 65 70 67 70 68 56 57 61 95 100 100 98 95 57 59 53 54 55 65 72 84 82 80 80 84 84 80 84 85 84 88 98
63 68 62 59 59 58 61 68 67 64 71 76 99 100 100 100 100 98 95 99 100 100 93 80 77 70 66 59 60 67 75 80 81 86 85 88 90 88 83 86 85 86 88 93
59 58 58 57 56 60 66 73 91 89 100 100 100 100 100 100 99 96 95 100 100 90 61 72 83 85 72 70 75 76 83 88 86 80 83 84 95 87 92 98 95 97 92 91
52 48 50 60 78 92 87 100 100 78 70 92 100 100 100 100 99 99 96 93 87 79 75 74 76 76 75 73 84 73 86 95 84 85 98 91 98 100 100 91 95 99 100 100
62 70 87 97 100 100 100 100 100 98 77 98 97 94 91 88 85 86 87 78 64 80 88 82 79 85 81 79 86 99 98 100 100 99 100 100 100 100 100 100 100 100 100 100
69 84 100 96 100 89 93 88 87 89 88 87 89 89 89 77 84 85 84 81 71 77 73 75 70 74 89 96 91 99 99 100 100 100 99 96 99 98 94 97 99 99 100 100
70 79 89 97 94 81 79 80 90 86 85 85 86 83 78 70 63 73 76 63 70 74 74 79 83 85 86 94 99 100 99 99 100 99 91 89 89 88 90 92 93 90 86 87
74 77 81 84 81 70 60 53 57 63 78 76 78 80 69 73 75 60 69 72 75 82 88 91 85 83 84 96 98 95 95 95 95 95 94 90 90 88 87 89 89 89 85 85
76 72 73 70 55 52 50 48 49 49 54 54 57 55 62 60 76 73 78 76 72 74 83 83 79 80 89 89 89 90 93 94 93 93 93 94 90 91 87 86 87 85 85 86
63 57 58 55 54 51 53 50 61 57 61 68 66 73 75 70 73 72 77 78 76 78 81 87 88 86 87 85 88 88 90 89 90 91 92 92 89 82 82 81 81 81 84 87
58 62 53 53 51 52 62 60 71 73 72 81 77 73 69 73 79 77 78 81 82 84 85 86 87 83 83 85 85 86 88 89 90 89 90 89 83 82 83 82 83 85 87 88

GFSNGP_sfc_rhum_024.txt.gz
RH
22 20 23 26 22 19 20 25 41 33 21 15 13 15 15 17 20 20 20 26 28 34 39 40 44 45 40 41 44 47 47 39 43 41 40 43 48 49 50 53 49 51 50 54
53 29 26 29 23 21 18 16 17 17 18 12 13 16 18 18 16 22 21 21 26 32 38 40 40 43 40 40 45 50 48 43 38 39 39 46 49 51 53 53 51 51 52 54
62 34 39 57 44 26 20 18 19 28 22 16 15 15 21 22 20 23 24 25 28 36 38 42 39 42 42 39 48 51 43 38 38 40 42 48 41 39 42 50 54 56 57 55
78 76 73 22 16 15 18 16 13 12 14 14 22 22 21 19 23 25 27 28 31 34 38 39 38 38 40 34 43 44 39 37 41 41 38 38 43 42 48 52 57 60 61 58
97 59 35 23 17 20 22 23 18 19 18 16 20 23 26 23 27 28 30 29 30 32 36 38 38 38 36 40 37 36 43 46 43 36 37 40 41 48 52 55 59 62 56 56
73 90 86 39 23 21 21 43 23 24 28 27 23 64 39 34 30 32 26 26 28 32 34 38 40 36 39 41 49 52 47 40 39 36 42 46 49 54 56 57 55 58 56 64
78 94 69 23 22 24 50 57 32 31 31 34 38 43 41 38 36 30 27 29 33 37 38 35 36 41 50 58 61 60 54 42 42 46 47 48 53 55 59 61 64 74 70 72
86 100 89 21 26 50 49 41 35 34 36 44 42 41 39 33 31 34 32 35 34 39 49 56 58 63 67 64 51 52 47 50 51 52 47 42 60 63 64 65 76 76 86 85
57 67 36 25 30 26 31 36 36 38 34 36 42 37 35 36 39 38 33 35 35 57 72 70 66 63 62 53 45 51 60 65 61 53 49 52 60 63 66 72 79 86 91 93
56 25 23 23 23 24 28 37 34 35 38 42 47 49 44 42 41 34 33 40 59 68 68 65 53 51 52 56 56 62 67 62 55 63 61 62 59 61 66 88 88 87 90 91
42 32 28 26 37 43 44 43 46 45 46 48 48 47 43 41 47 48 65 64 60 61 69 75 65 57 52 57 61 60 57 62 69 82 76 71 62 63 81 73 78 78 82 91
76 46 49 49 48 46 49 48 46 46 46 44 41 42 47 63 66 60 62 69 70 69 63 62 61 55 54 55 62 72 75 78 88 89 85 72 65 69 68 77 78 80 80 83
48 48 49 50 47 48 54 53 54 58 61 70 69 73 73 75 76 81 70 69 65 63 58 54 59 65 62 65 72 78 82 83 85 88 86 84 89 84 86 80 79 84 86 83
47 51 57 49 57 55 62 62 64 62 63 64 64 67 73 75 69 65 64 57 51 50 53 57 62 64 64 62 65 73 78 80 80 79 91 92 91 84 78 83 88 85 89 90
48 47 50 53 58 64 59 59 63 64 61 61 58 59 55 53 52 52 50 48 52 53 50 46 55 56 47 62 56 69 75 76 81 92 94 90 86 86 84 89 91 87 85 90
48 53 60 65 63 62 59 58 62 66 65 70 68 62 51 47 43 44 44 66 80 81 78 94 97 79 70 60 55 55 67 82 83 85 89 89 88 88 86 86 85 86 91 88
73 81 75 72 67 63 59 66 65 57 58 66 77 92 85 91 78 83 80 86 98 97 94 94 92 69 80 70 66 63 71 79 88 95 99 98 93 88 87 93 97 88 85 90
62 66 64 62 63 72 64 66 75 78 88 91 97 97 98 98 97 95 95 93 93 94 93 88 87 84 82 73 76 80 81 81 88 95 92 90 90 89 86 86 90 88 88 87
57 61 63 58 59 72 79 89 95 97 98 97 97 95 92 89 88 85 82 85 85 84 89 83 84 86 82 80 82 82 86 86 87 90 90 91 92 87 88 89 90 98 97 94
56 56 63 78 84 90 97 98 96 84 88 92 90 90 90 91 90 90 90 87 78 90 74 70 71 71 71 73 82 81 94 98 97 98 98 97 92 92 93 92 94 98 96 98
69 83 94 97 97 93 92 97 94 92 79 94 93 94 95 91 93 93 80 74 82 73 77 72 70 83 80 81 82 84 83 89 89 96 98 98 99 96 94 93 94 96 98 98
82 96 97 92 91 87 90 87 88 92 92 94 93 92 89 74 78 76 80 82 75 81 76 83 86 82 80 87 88 94 91 95 96 93 95 98 99 98 94 93 93 95 94 96
87 90 89 90 88 80 80 86 93 90 91 91 91 86 79 72 70 76 83 72 75 79 75 85 84 82 85 89 89 90 90 94 94 94 96 96 97 97 96 96 95 95 95 94
83 79 81 84 87 78 65 56 61 75 84 80 87 90 74 79 83 73 76 78 84 87 85 90 89 85 83 89 89 89 90 93 91 92 92 92 95 94 94 95 94 93 92 89
79 79 80 82 63 59 54 52 56 58 61 60 64 61 69 70 86 82 84 83 80 84 86 84 86 87 87 88 89 90 90 92 92 92 92 94 94 94 94 94 93 89 88 88
73 68 60 58 58 56 58 57 67 65 66 76 75 81 83 81 80 79 82 82 83 83 88 87 88 90 89 86 89 89 89 89 90 90 91 93 93 93 94 93 89 87 87 88
65 69 60 62 56 59 68 66 76 78 80 88 83 83 79 83 85 81 84 86 87 89 87 88 88 88 90 87 88 87 87 88 86 92 89 91 92 93 92 91 89 88 88 88

GFSNGP_sfc_rhum_027.txt.gz
RH
45 42 36 34 37 32 31 41 56 47 40 31 28 25 26 29 30 26 28 38 46 46 50 50 58 59 57 60 55 50 54 50 48 50 53 50 52 52 54 54 51 52 55 58
65 40 36 41 36 33 32 31 31 32 34 24 24 25 25 25 24 27 28 30 34 50 55 53 58 62 58 55 56 53 54 54 49 48 49 55 53 51 52 55 54 57 57 59
71 50 44 52 37 35 36 34 33 39 32 33 33 32 32 32 31 32 31 36 39 48 56 57 61 58 57 54 57 59 60 54 52 53 51 53 47 46 48 49 55 58 61 60
84 75 52 37 26 22 30 28 28 27 30 32 30 34 37 35 39 38 37 37 37 41 47 58 64 60 50 48 55 56 49 51 50 52 50 48 46 49 56 60 59 61 64 63
77 83 52 35 34 40 36 39 34 38 36 34 32 37 53 44 41 38 37 36 37 42 49 55 56 51 45 47 53 56 55 46 45 48 49 56 61 67 67 62 63 65 62 65
88 84 74 58 34 31 31 66 44 42 46 46 41 78 68 47 44 45 44 47 44 43 47 50 53 49 55 61 64 64 58 56 56 62 63 64 72 69 62 59 62 64 58 66
96 93 79 49 32 37 48 60 48 44 48 50 57 66 52 50 46 44 44 50 59 65 70 68 64 66 71 72 74 66 64 69 70 62 67 67 63 61 66 69 75 84 85 78
97 99 85 37 37 43 65 52 46 46 50 51 53 52 50 50 46 42 53 68 69 75 76 70 63 63 69 75 68 74 73 70 66 68 63 55 64 67 68 72 83 88 90 89
76 84 61 40 39 43 43 45 52 56 57 58 64 65 60 48 48 58 71 79 70 66 62 58 54 64 66 63 70 70 70 75 73 70 65 61 65 70 76 80 92 92 96 94
60 46 43 40 52 55 56 62 62 58 58 62 66 57 45 51 66 70 75 70 64 64 66 71 64 62 68 66 68 73 76 76 76 74 74 76 76 78 82 96 96 96 96 98
59 49 66 65 65 63 58 58 55 52 53 52 54 63 68 74 71 64 60 64 71 76 81 80 73 69 65 69 70 74 73 75 81 90 87 90 87 86 89 83 86 89 91 92
86 66 72 71 63 59 62 64 62 68 77 74 69 76 70 69 66 66 78 78 75 79 76 74 72 71 67 67 72 80 87 91 94 96 93 90 89 88 82 82 85 86 85 86
72 64 65 65 69 67 74 74 72 75 74 82 81 81 82 88 85 82 76 78 71 71 73 73 69 73 74 75 79 84 90 90 93 92 93 94 95 96 94 90 80 78 81 84
61 63 72 69 81 71 70 71 70 69 72 77 82 84 87 87 81 78 73 68 66 67 68 68 72 76 76 77 80 84 88 89 91 92 92 93 95 94 86 79 85 86 86 85
66 65 73 71 68 68 67 68 72 75 76 78 76 76 70 69 67 70 75 74 73 77 82 83 86 82 78 84 80 84 86 90 89 90 87 88 90 90 90 95 93 92 92 95
69 67 70 73 69 66 66 72 81 85 77 73 76 83 80 78 82 85 87 94 97 97 96 96 96 93 90 84 84 81 86 87 88 90 88 88 90 97 98 97 95 95 94 92
85 88 81 74 72 73 75 71 68 69 77 95 98 96 95 97 95 92 87 84 88 92 96 99 88 69 82 75 83 87 92 90 88 86 91 98 97 97 97 97 96 95 94 94
70 73 69 71 74 75 82 84 92 97 97 93 93 91 90 91 93 90 93 93 92 94 87 89 82 77 79 76 85 92 95 94 92 94 95 96 96 96 94 98 96 95 91 94
67 68 69 68 72 84 93 96 98 95 93 90 91 93 94 93 93 94 93 95 94 89 88 74 80 86 82 77 78 80 83 86 86 87 89 87 90 88 96 98 96 97 93 90
77 78 81 88 93 97 98 97 95 93 93 92 94 96 96 96 96 96 96 96 88 86 77 83 83 78 74 76 89 94 94 93 93 93 94 96 94 91 98 98 98 98 98 97
91 97 97 96 98 97 96 94 92 95 91 96 94 97 97 96 90 92 92 94 87 78 78 88 81 75 73 86 81 91 90 93 94 93 94 95 94 93 96 97 97 97 97 99
94 97 97 94 94 94 95 94 93 94 95 96 96 94 91 86 91 91 94 90 85 93 87 91 88 87 82 93 88 91 89 92 90 91 92 92 94 94 95 95 96 96 96 95
94 92 91 93 90 87 93 92 93 90 93 95 94 93 92 94 94 96 95 84 87 92 85 97 98 94 94 91 92 92 90 93 93 92 92 93 93 94 94 94 94 94 94 94
93 91 90 91 88 88 77 81 83 82 90 91 93 91 91 97 97 95 97 97 98 97 96 93 96 97 98 98 96 93 94 94 93 93 93 92 92 92 93 93 93 94 93 93
89 89 90 91 76 76 71 72 78 76 79 82 81 83 86 94 95 97 97 97 97 96 98 97 97 98 99 98 98 98 96 96 95 95 94 93 92 93 92 92 93 94 94 93
88 77 73 73 77 75 80 84 90 92 94 96 96 96 97 97 96 96 97 97 96 97 97 98 98 98 99 98 98 99 98 95 92 93 95 92 93 92 92 92 92 92 93 92
82 78 73 75 75 80 88 91 95 97 98 97 95 96 98 97 98 96 97 98 99 98 98 100 99 98 95 98 99 99 100 98 97 96 97 98 94 93 93 92 92 91 91 91

GFSNGP_sfc_rhum_033.txt.gz
RH
44 38 48 42 42 48 47 51 58 49 53 40 36 30 32 33 36 52 70 67 67 73 77 77 86 85 83 80 76 74 67 64 64 57 59 60 66 66 68 64 61 60 60 64
66 51 47 46 40 40 44 43 48 46 45 43 40 45 43 41 40 45 49 60 61 61 67 75 78 84 79 75 74 70 69 71 68 67 70 70 67 64 63 64 63 62 66 69
64 60 51 64 49 41 38 41 40 46 38 44 49 44 48 53 49 50 52 56 61 66 65 71 78 79 76 76 77 74 67 68 67 62 60 62 61 66 72 78 82 79 71 66
80 67 69 48 41 37 43 46 42 42 43 50 54 60 57 54 49 51 58 62 63 68 77 84 85 81 78 72 73 69 68 65 63 65 68 70 74 81 90 90 88 82 73 72
75 75 57 43 41 42 43 47 46 48 50 56 60 63 61 62 63 64 66 68 72 71 72 71 69 66 60 60 62 66 66 70 72 78 83 87 90 93 91 89 82 72 72 78
89 70 69 55 43 38 42 68 47 52 53 54 55 81 74 64 65 73 72 72 74 74 72 72 71 68 69 70 71 76 75 80 87 89 91 92 93 92 86 73 69 77 77 81
97 83 69 47 43 35 49 52 55 54 57 60 60 68 73 74 76 74 74 74 72 76 80 78 73 72 78 79 86 89 91 92 92 91 91 90 86 81 80 80 82 84 85 86
94 83 65 50 48 41 50 66 58 58 58 70 79 70 74 76 78 78 78 74 72 77 81 82 81 79 82 88 84 87 89 90 88 84 75 70 82 85 80 83 86 87 91 91
72 73 56 56 46 55 60 57 59 62 71 75 67 71 79 82 80 75 70 68 68 73 74 70 72 77 84 86 85 83 82 82 82 81 81 82 85 83 85 87 94 92 93 93
67 68 65 77 80 73 73 75 76 78 78 65 70 78 81 78 76 75 77 75 76 74 76 76 69 70 74 74 78 78 80 80 82 85 86 87 88 90 94 96 96 93 93 94
85 88 80 76 77 72 71 72 73 71 69 72 77 79 78 79 78 81 84 82 79 77 77 76 73 73 78 80 79 79 81 84 86 93 90 91 91 93 93 92 92 91 90 92
83 76 69 80 77 73 75 78 76 75 77 73 71 74 74 82 83 81 80 77 75 76 77 80 84 89 90 90 90 90 90 92 94 95 94 91 92 87 83 87 86 86 86 86
62 73 82 81 82 79 83 83 79 76 72 76 77 80 82 90 90 81 76 76 79 87 89 94 96 94 95 94 93 93 96 95 96 96 96 96 94 94 91 84 83 84 86 85
76 76 88 84 91 84 84 84 81 80 80 82 87 88 91 93 90 91 93 91 94 96 90 88 84 79 82 89 88 92 94 95 97 97 98 97 97 84 84 89 93 91 83 87
83 78 78 81 81 83 79 81 87 92 91 92 90 89 89 95 96 94 95 96 88 84 82 79 82 88 88 81 74 82 80 80 84 90 92 93 90 86 83 82 80 84 89 93
81 80 80 83 82 81 82 83 88 90 90 92 94 96 95 90 88 90 91 87 87 90 85 95 92 80 76 70 73 77 87 92 94 94 93 92 90 91 91 90 90 89 90 86
93 96 90 88 84 84 82 78 79 86 93 92 97 94 82 83 88 90 95 90 89 92 93 92 82 66 70 72 77 90 87 85 90 89 89 90 92 92 91 92 91 89 90 88
82 82 80 77 86 88 88 87 89 89 92 92 93 90 92 93 97 98 95 90 90 96 85 79 71 63 67 71 76 80 88 91 86 86 89 91 92 89 91 91 91 93 92 90
74 78 79 76 78 84 88 92 93 92 94 89 89 93 95 96 95 95 89 91 91 90 83 72 76 73 65 76 84 84 94 95 89 88 90 94 94 90 93 93 93 92 91 91
80 79 80 84 85 89 96 96 95 90 85 90 94 91 92 98 96 96 92 88 81 87 77 74 70 71 70 69 93 82 97 98 92 93 94 96 95 95 95 92 92 92 93 92
90 89 90 92 97 96 95 92 89 90 86 92 89 92 94 96 96 96 96 91 74 87 79 83 82 83 70 85 86 100 100 100 99 99 100 99 96 95 95 94 93 94 94 93
91 93 96 91 90 92 93 91 88 90 91 91 93 94 94 93 95 94 97 91 80 98 94 96 92 95 89 100 93 100 100 98 98 100 100 100 97 97 97 95 95 95 94 94
96 92 92 93 88 91 93 92 89 87 88 91 93 94 94 92 93 97 98 88 90 98 96 99 99 100 100 100 100 100 100 100 100 100 100 100 100 100 99 97 97 96 96 95
92 93 89 89 88 86 89 86 76 84 91 90 93 96 91 99 100 95 95 99 100 100 100 100 100 100 100 100 100 100 100 100 100 100 100 100 100 100 100 99 98 96 96 94
90 84 86 84 78 79 78 81 83 85 86 84 86 86 88 89 96 99 98 99 100 99 100 100 100 100 100 100 100 100 100 100 100 100 100 100 100 99 99 99 99 98 96 95
82 81 80 80 84 84 84 85 92 88 82 92 98 99 99 97 96 96 98 100 99 100 100 100 100 100 100 100 100 100 100 99 100 100 100 100 100 99 99 97 98 97 96 95
93 93 91 92 92 92 93 93 95 96 92 95 97 97 96 98 99 97 100 100 100 100 100 100 100 100 100 100 100 100 100 100 100 100 100 100 100 100 99 98 97 97 96 96

GFSNGP_sfc_rhum_036.txt.gz
RH
46 40 44 44 44 52 50 53 58 52 54 42 42 37 34 36 40 49 78 82 83 86 89 88 90 90 92 92 88 87 79 74 74 69 70 74 73 70 72 67 64 63 64 72
69 55 53 59 48 50 55 54 53 51 49 42 45 50 50 44 51 60 66 70 71 73 82 85 88 91 91 87 84 83 81 77 77 80 77 79 75 71 68 69 76 82 84 86
62 60 52 64 53 45 47 47 46 56 46 44 50 50 57 58 58 60 65 69 69 82 87 84 84 88 90 88 86 82 82 80 79 76 67 71 74 74 81 88 90 90 93 88
80 73 67 44 46 42 45 44 44 44 47 48 52 63 68 66 60 65 66 70 74 80 81 83 88 86 83 79 77 74 74 73 72 72 79 81 85 90 93 93 95 96 89 84
74 79 56 46 45 46 45 40 45 48 62 64 65 66 72 65 72 76 79 79 81 79 77 74 71 69 69 71 71 74 80 82 81 85 88 90 93 95 96 96 92 88 80 77
85 74 71 56 44 40 40 56 48 56 65 68 60 70 72 74 77 80 79 79 81 80 78 77 77 71 75 81 85 92 92 89 88 89 90 93 95 93 91 90 86 76 78 80
96 82 73 53 43 42 50 52 54 56 62 64 57 63 80 81 82 80 79 83 82 82 86 87 82 80 92 94 98 97 96 94 92 91 93 93 92 91 89 88 86 88 86 86
91 84 75 48 50 48 53 70 62 60 63 66 82 82 83 81 82 80 82 83 82 84 89 90 91 90 96 96 94 92 90 89 87 86 82 78 87 89 88 88 89 89 92 89
71 74 59 57 53 49 56 60 61 60 69 74 81 84 83 85 80 75 78 83 79 81 82 81 81 82 88 87 80 80 82 83 84 83 83 86 89 89 88 89 96 92 92 93
65 59 63 65 78 72 71 68 71 75 76 68 80 83 85 77 74 76 81 84 81 78 79 82 76 73 76 78 80 81 84 87 89 89 90 89 90 92 95 96 96 92 93 93
75 85 84 76 78 73 80 79 76 75 72 76 80 82 80 80 81 84 90 85 78 76 78 80 81 87 90 92 89 92 92 93 94 95 94 95 92 94 94 93 92 90 90 91
70 66 63 62 77 77 80 81 78 79 83 80 77 80 79 86 87 88 85 78 76 77 84 90 86 93 95 94 94 94 92 96 98 98 98 95 97 93 84 86 87 87 88 91
52 73 86 84 84 80 83 82 78 78 76 80 78 79 83 91 91 84 79 78 84 93 89 86 83 90 93 89 92 91 97 94 91 91 91 92 89 88 90 76 70 73 73 74
78 76 87 81 89 86 83 81 79 80 82 84 88 88 89 91 89 86 90 96 90 83 84 83 89 91 80 76 77 81 84 89 93 95 96 96 97 95 94 94 94 88 76 77
83 80 78 86 87 88 82 82 88 94 93 94 89 89 89 95 95 96 92 83 77 80 82 87 77 76 74 75 72 81 86 92 94 98 98 97 94 88 84 90 90 88 84 81
86 85 85 90 91 88 88 90 94 96 93 92 93 93 93 92 94 93 86 83 83 88 83 93 77 67 68 70 73 78 84 89 94 93 91 92 90 86 84 90 90 91 91 91
96 97 93 94 93 90 89 87 88 90 91 92 94 87 81 90 94 89 85 85 94 93 84 83 72 62 65 66 74 76 90 90 89 89 90 88 92 94 91 93 93 91 91 90
78 80 82 82 86 88 88 87 90 88 91 90 89 90 93 93 98 95 91 94 95 91 80 72 67 60 62 68 68 76 90 84 84 90 88 94 95 90 93 94 92 92 92 88
80 82 83 83 81 84 86 89 90 92 91 87 88 92 94 95 94 89 86 92 95 89 80 68 75 71 62 76 76 87 95 92 90 86 90 96 98 92 95 96 95 93 93 93
83 82 85 89 90 93 97 96 89 83 83 89 94 94 97 96 92 92 91 91 86 86 75 71 71 71 71 75 90 84 96 98 95 96 99 98 100 100 99 98 95 94 96 96
94 94 96 97 98 97 94 90 87 90 89 90 91 95 96 96 94 94 94 89 79 87 76 82 80 81 71 85 84 100 98 100 100 100 100 100 100 99 99 100 99 97 96 95
96 95 96 96 96 96 94 91 91 93 91 93 94 95 95 93 95 94 96 89 80 95 91 92 88 92 87 99 90 100 99 99 100 100 100 100 100 100 99 100 100 96 96 96
97 96 95 94 93 92 88 90 91 90 92 92 93 94 92 90 92 96 97 86 90 99 92 97 99 97 99 100 100 100 100 100 100 100 100 100 100 100 100 99 97 98 97 97
96 96 95 96 95 83 77 74 75 85 92 92 95 94 89 98 99 94 95 98 100 100 98 100 100 100 100 100 100 100 100 100 100 100 100 100 100 100 100 99 98 96 97 97
95 95 95 95 90 87 76 76 85 86 86 84 87 86 86 88 96 97 98 99 99 99 100 100 99 100 100 100 100 100 100 100 100 100 100 100 100 100 99 99 99 98 96 96
91 92 92 89 86 86 86 86 91 88 88 95 95 97 97 95 92 94 96 99 98 99 100 100 100 100 100 100 100 100 100 100 100 100 100 100 100 99 99 98 98 97 96 96
93 94 92 92 92 93 94 94 96 96 96 98 96 96 95 96 95 91 99 100 100 100 100 100 100 100 100 100 100 100 100 100 100 100 100 100 100 100 99 99 98 97 96 96

GFSNGP_sfc_rhum_042.txt.gz
RH
20 16 16 17 17 25 27 28 33 27 21 19 15 16 14 22 22 27 31 35 42 42 45 48 54 58 58 60 60 59 58 56 64 62 58 57 59 58 58 58 57 66 62 80
32 23 22 22 19 18 22 21 23 23 22 15 16 19 22 24 29 36 42 44 45 47 49 53 54 54 58 58 59 54 54 54 55 53 52 55 58 60 68 68 70 79 77 85
35 30 30 49 37 23 23 25 26 28 21 16 19 23 23 29 34 40 45 46 48 49 50 50 54 54 55 55 54 54 54 53 53 54 57 62 62 64 78 70 89 86 81 61
48 69 80 24 24 20 24 22 20 21 18 17 19 20 30 31 36 42 44 47 47 47 50 50 50 52 53 50 52 52 52 51 53 56 60 62 64 66 76 78 80 73 71 76
79 50 29 29 29 29 30 24 18 19 18 17 26 34 41 39 36 41 46 47 47 46 48 48 48 47 48 48 49 51 53 54 54 56 57 59 63 68 66 64 69 70 76 83
62 56 73 27 20 22 22 36 17 19 22 23 34 44 29 43 46 48 45 45 47 47 47 48 49 47 50 51 52 55 55 53 53 54 56 60 66 78 84 82 78 71 60 55
61 68 41 28 25 25 40 36 22 20 23 31 38 29 40 44 48 44 45 47 47 46 50 51 49 49 52 54 58 57 60 64 69 70 75 67 54 48 47 46 49 58 60 56
60 83 74 31 29 33 29 35 27 30 29 38 39 48 48 47 48 48 48 49 49 54 55 52 50 53 60 69 65 63 62 58 46 43 38 37 42 43 42 44 52 55 69 59
46 46 31 34 26 26 29 26 33 31 31 36 50 48 48 50 50 48 46 46 47 52 56 54 51 51 56 56 49 45 42 43 46 46 45 44 46 49 44 47 52 56 54 59
55 30 36 34 26 29 28 28 28 29 34 43 46 48 49 50 50 48 45 46 46 52 55 55 48 46 46 43 40 44 48 48 46 48 45 41 34 33 34 44 51 49 50 52
46 34 40 38 33 28 32 36 37 31 36 40 44 47 48 50 50 46 45 48 49 52 54 53 51 51 47 46 43 43 46 44 42 42 35 31 30 37 46 47 63 61 59 59
58 35 40 27 28 31 35 42 39 38 43 40 43 46 46 49 48 48 52 51 50 52 53 53 53 51 47 43 40 40 37 38 50 46 44 34 32 33 73 67 66 67 70 75
35 42 41 45 44 34 40 40 40 41 40 46 44 45 47 51 52 61 53 51 52 54 55 50 47 47 41 39 39 40 38 42 45 50 43 43 44 45 47 52 56 58 60 64
52 52 48 50 46 54 47 47 55 43 45 47 46 47 52 57 60 56 56 53 52 54 51 46 42 40 38 36 40 45 47 62 45 47 47 50 49 52 52 59 66 61 54 57
54 55 60 54 52 54 54 54 56 57 56 54 53 60 62 64 60 60 58 55 57 57 49 39 36 38 37 42 36 40 40 44 55 60 63 60 60 59 56 59 60 59 55 51
65 58 60 60 61 62 62 62 60 68 66 68 67 65 61 60 65 60 58 61 61 55 42 69 51 43 45 35 33 40 54 66 61 55 56 56 57 60 56 60 61 62 61 63
74 78 72 74 70 65 65 62 65 68 70 67 68 68 71 72 70 78 86 80 82 78 67 63 49 42 47 36 33 39 47 54 67 56 54 55 60 64 60 64 65 64 66 71
62 63 63 62 66 73 74 72 73 74 75 78 94 94 92 90 93 95 92 90 93 89 71 54 49 46 42 41 42 49 53 53 55 60 58 69 65 61 66 67 65 66 69 68
65 68 69 67 68 73 79 87 92 93 95 95 94 96 97 96 95 93 91 91 89 79 66 57 63 54 52 61 52 56 60 66 60 57 63 66 73 66 72 75 73 74 72 72
82 83 87 89 88 93 96 96 96 96 97 96 97 97 95 96 95 96 90 86 71 65 58 58 52 52 54 57 56 53 66 75 63 70 78 73 79 81 78 70 73 76 80 79
97 97 97 97 98 98 97 98 97 97 96 96 95 96 96 95 95 95 91 78 71 63 60 62 54 51 48 51 46 77 76 79 77 75 80 81 81 78 79 80 80 80 82 81
96 96 97 97 97 96 97 97 95 96 96 96 96 96 95 92 93 88 82 70 67 71 64 62 58 71 63 60 60 76 71 72 72 76 77 79 81 82 81 80 81 82 82 82
96 95 93 95 95 94 94 96 96 95 95 95 95 94 88 74 66 71 74 67 66 75 64 72 81 82 74 79 78 78 77 77 78 78 80 81 82 82 81 81 81 82 81 81
92 92 93 94 94 90 88 90 88 90 93 91 89 83 73 82 84 72 74 79 82 82 86 86 85 74 80 81 80 79 79 79 80 81 78 84 81 80 80 82 80 79 80 79
92 92 92 91 86 87 86 87 85 82 78 74 74 71 73 76 86 85 87 88 88 82 84 89 76 73 81 81 80 80 79 80 81 81 80 81 80 81 81 80 81 81 82 83
86 85 86 88 87 85 85 80 82 84 82 87 87 90 90 86 85 86 88 87 84 80 78 82 82 83 81 78 79 79 80 76 78 78 81 80 79 79 80 80 81 81 83 83
83 82 75 77 79 82 84 83 86 89 89 91 89 89 86 87 88 83 85 82 79 79 80 80 80 79 79 80 78 77 78 78 79 78 81 80 80 82 82 82 82 83 83 84

GFSNGP_sfc_rhum_045.txt.gz
RH
20 18 17 18 18 18 19 20 30 24 18 16 14 14 12 17 16 15 17 18 20 27 31 38 45 47 51 55 56 53 52 53 66 64 63 68 71 71 71 70 68 68 70 65
26 19 17 18 14 14 14 16 17 16 17 13 11 10 12 14 16 18 22 26 31 32 36 43 48 50 54 56 57 54 53 56 55 54 52 55 55 59 60 60 61 64 77 81
42 23 23 37 23 16 15 14 17 23 18 14 13 12 14 16 17 23 29 33 36 39 43 46 49 51 54 52 51 50 50 50 51 52 53 55 51 53 56 62 62 74 74 67
50 64 63 25 16 15 18 15 13 14 14 13 13 12 15 18 20 30 34 38 41 41 43 44 43 44 46 44 46 47 48 50 51 53 55 53 55 57 62 65 66 67 63 58
65 51 32 20 18 20 20 19 13 14 14 13 12 18 26 24 25 32 36 36 36 37 39 41 41 41 42 43 44 46 48 50 50 52 53 54 58 64 64 65 65 71 78 73
56 55 62 31 18 15 15 33 14 13 16 16 17 38 21 30 31 35 35 35 37 38 38 40 40 40 42 44 45 48 49 48 48 50 52 58 66 69 70 70 64 56 53 50
64 60 38 19 16 15 38 34 17 15 15 16 20 23 27 33 38 34 34 36 39 38 40 41 40 41 44 46 48 47 49 54 57 58 62 59 53 45 42 40 42 52 53 51
63 66 72 28 23 30 28 24 22 21 18 22 21 35 36 36 36 35 36 39 37 42 44 42 40 43 46 51 52 53 57 57 48 38 31 32 37 38 36 40 49 54 59 56
43 44 34 31 28 24 19 20 23 22 19 22 33 37 37 37 37 37 37 37 39 42 47 45 44 47 52 53 51 50 42 37 36 35 34 34 37 41 36 38 44 49 47 53
44 33 28 31 28 23 22 24 21 21 20 25 37 37 38 38 39 39 35 37 38 45 49 51 45 44 47 45 39 39 40 40 38 38 37 32 27 26 30 44 48 46 48 50
39 26 26 23 27 28 23 24 23 22 22 26 35 36 36 38 39 36 35 38 43 47 48 45 42 42 38 36 36 35 37 37 38 36 29 28 28 33 43 55 58 56 59 57
50 27 39 37 28 23 27 26 29 28 25 29 32 35 36 38 38 36 40 44 44 46 47 44 43 42 39 36 33 37 37 37 46 45 40 28 27 43 70 63 66 70 66 68
33 31 38 36 30 28 25 25 26 30 26 31 31 33 36 39 40 51 43 44 45 47 47 46 44 40 35 36 37 37 39 43 47 47 39 39 40 42 42 69 64 66 62 58
24 30 47 38 35 37 34 29 37 29 29 31 33 34 38 42 46 45 46 45 46 46 45 43 40 41 40 36 37 41 43 68 41 42 42 44 43 47 47 54 62 58 61 52
40 42 42 45 42 42 39 41 44 37 36 38 38 41 44 47 49 50 48 47 46 44 41 37 38 36 35 39 34 40 39 43 53 59 59 57 56 55 53 54 56 56 52 54
55 52 46 51 45 49 48 48 45 48 49 47 48 50 50 51 52 55 52 53 54 47 45 66 55 46 39 33 37 43 52 62 59 52 54 53 54 56 52 56 57 58 58 59
63 62 60 60 54 53 50 50 49 57 59 58 62 64 58 67 71 71 67 69 84 85 74 72 78 78 47 36 36 42 50 56 64 54 52 52 56 60 56 60 63 62 63 67
56 55 55 55 55 58 61 61 64 66 71 74 94 91 88 89 91 92 93 93 94 94 91 89 82 51 43 42 42 48 53 52 54 58 55 66 64 58 62 64 63 63 65 65
61 62 61 59 60 68 78 87 93 95 96 93 91 94 94 95 95 96 96 95 95 93 91 77 72 61 62 65 51 55 60 63 57 53 62 63 70 64 68 72 70 72 69 69
88 87 87 90 90 95 97 97 94 96 96 95 96 96 96 96 96 96 96 95 92 88 76 65 53 53 51 54 54 52 64 72 62 64 72 73 75 78 75 68 69 73 77 76
97 97 97 96 97 97 98 98 97 97 98 97 96 96 96 96 95 96 93 87 88 76 68 62 53 50 47 48 44 73 72 74 73 73 76 77 78 74 76 76 77 77 78 78
97 97 97 97 96 97 97 97 96 96 96 96 96 96 95 94 95 95 95 86 80 76 64 60 58 68 60 59 57 73 68 67 70 73 75 77 78 79 79 78 78 78 78 78
97 96 95 96 95 95 95 96 96 96 96 95 95 94 93 90 89 88 89 76 69 68 62 75 77 74 61 78 77 75 74 73 75 76 77 80 81 82 81 79 78 78 78 77
95 95 96 96 93 89 90 91 89 92 95 94 95 96 89 90 88 73 75 80 78 89 89 87 82 68 77 78 78 78 77 78 78 80 78 76 82 83 80 79 78 76 76 76
94 95 94 93 88 91 88 89 87 87 86 84 86 85 86 85 91 91 89 87 81 80 86 81 74 74 79 78 80 79 79 80 83 79 77 81 81 81 79 78 77 77 77 78
87 85 82 83 85 82 84 80 85 86 83 86 86 89 88 82 81 81 81 78 76 73 79 82 82 77 78 79 79 77 79 76 79 81 81 79 80 79 77 75 76 76 78 78
75 72 67 70 72 74 76 76 82 85 84 88 86 86 84 86 83 78 81 82 82 79 80 78 78 79 75 80 77 80 80 79 83 78 77 79 78 78 78 78 78 78 79 80

GFSNGP_sfc_rhum_048.txt.gz
RH
25 20 20 23 22 20 21 22 34 30 24 19 17 20 23 19 18 16 16 17 19 24 35 42 50 53 53 65 66 69 72 77 88 88 85 88 89 89 87 86 83 79 79 80
40 24 21 27 26 18 18 18 18 19 20 14 13 15 17 13 13 17 17 16 21 23 33 45 48 54 61 64 66 65 71 72 71 73 78 84 85 84 80 76 74 75 78 84
52 30 28 40 29 20 18 15 17 23 20 15 16 15 15 15 15 17 20 26 31 32 43 50 54 60 64 64 62 62 63 61 61 63 65 68 64 66 72 78 81 85 85 85
73 71 60 29 20 18 20 18 15 14 13 13 14 14 13 17 21 24 28 32 38 45 52 58 57 58 60 56 60 59 58 58 59 61 60 61 62 68 75 79 83 84 82 76
73 61 41 26 23 23 26 24 16 16 14 12 12 20 24 22 26 32 36 41 44 45 50 52 52 53 51 52 51 54 57 58 58 59 60 63 68 74 74 74 74 80 82 84
80 69 66 41 23 19 19 37 19 16 19 18 16 43 29 28 30 36 37 38 42 44 46 48 48 47 49 51 53 55 56 55 55 57 61 68 74 76 80 81 78 73 74 76
75 78 60 26 21 20 40 42 25 20 19 24 29 28 33 31 35 34 35 37 40 42 44 46 44 46 49 51 54 51 53 56 59 63 69 68 71 72 69 65 65 75 69 68
78 79 75 33 26 33 34 37 30 25 28 38 33 40 37 35 37 36 36 37 39 44 46 46 44 46 49 53 52 57 62 66 64 61 48 47 55 54 49 61 72 77 80 83
54 57 45 38 36 33 33 34 34 34 27 28 42 39 38 39 40 37 36 40 39 43 48 48 44 46 52 58 58 62 60 50 42 39 39 42 53 56 57 61 72 80 82 88
59 47 45 38 40 34 31 37 28 26 25 31 44 40 40 39 39 39 36 39 40 47 51 54 50 49 55 56 54 48 45 46 46 48 45 44 35 38 58 76 82 82 84 84
45 38 31 27 41 40 37 34 31 28 30 34 37 40 39 39 39 38 38 39 44 52 54 54 51 53 51 48 44 42 46 44 49 52 44 41 49 55 73 63 75 84 83 83
62 36 46 45 42 36 36 32 29 32 34 31 32 38 38 40 40 38 40 45 48 52 54 49 49 48 45 43 41 46 47 52 70 67 58 41 48 55 73 69 72 69 67 75
35 37 48 48 39 34 40 40 32 34 34 33 35 37 37 41 42 50 43 48 49 52 50 49 49 48 45 48 48 51 59 58 68 72 66 65 67 74 84 74 68 69 66 63
23 32 36 28 45 45 46 41 39 32 35 35 35 36 42 46 48 45 48 48 49 50 52 50 46 48 46 45 51 56 57 70 62 64 66 72 69 72 73 81 87 89 69 61
54 49 47 48 46 42 43 45 47 44 40 42 44 47 47 48 50 52 51 51 51 51 48 42 42 40 41 52 46 57 60 66 77 83 84 79 77 78 75 75 78 79 77 73
54 53 51 52 49 47 50 53 56 58 58 60 55 53 52 52 54 57 56 57 58 55 54 69 55 52 53 51 63 80 84 86 80 75 73 72 76 75 72 75 78 80 82 82
68 69 66 67 60 56 53 54 53 59 65 72 75 71 68 75 79 79 74 73 82 87 87 89 77 56 62 65 89 90 88 87 76 72 68 68 73 78 73 80 82 82 86 92
64 62 61 60 61 62 67 78 84 87 91 84 87 88 90 91 94 94 93 91 92 94 93 94 93 93 94 92 90 86 82 73 69 72 67 81 78 72 80 81 79 80 85 83
78 82 84 83 84 90 94 95 95 92 92 91 92 95 94 94 95 96 96 95 95 95 96 95 94 91 87 84 77 78 81 79 68 66 72 77 87 80 85 88 87 88 86 85
89 88 88 90 90 94 96 96 94 95 94 93 95 95 95 96 96 96 95 96 95 94 93 92 90 82 74 73 65 74 80 82 72 78 88 82 89 91 89 82 85 88 92 91
96 95 95 94 96 96 96 96 94 96 97 96 94 95 95 96 96 95 94 92 94 94 92 94 83 74 61 56 56 86 84 86 86 84 88 89 90 87 90 90 90 92 91 92
96 96 96 96 95 96 96 96 95 95 95 95 95 95 95 96 95 95 96 92 91 96 92 90 74 76 68 82 77 89 80 80 82 86 88 90 91 91 91 91 92 91 93 92
96 96 95 95 95 96 94 95 96 95 96 96 96 96 95 95 94 93 93 92 92 95 90 92 89 83 81 94 89 89 90 86 88 91 90 92 92 93 91 91 92 92 92 93
95 95 96 96 93 89 92 95 93 94 95 95 96 96 94 94 95 92 93 94 95 93 93 92 87 82 85 92 91 90 89 89 90 92 94 90 93 94 94 93 93 92 92 93
94 94 94 94 92 94 93 93 91 92 92 91 91 90 89 91 93 94 93 91 88 92 88 84 83 81 90 90 90 90 89 90 92 91 89 93 93 93 90 90 94 92 94 92
92 91 90 90 89 90 90 82 88 92 86 90 92 92 92 90 88 86 86 85 82 81 85 93 90 90 89 87 86 87 90 91 90 91 94 91 89 88 89 90 92 92 93 93
76 75 71 74 75 76 79 82 87 86 89 93 91 88 88 92 87 85 89 86 87 91 88 87 90 87 92 89 88 86 85 86 90 94 89 90 90 89 91 92 92 92 90 90

GFSNGP_sfc_rhum_051.txt.gz
RH
37 28 29 31 32 29 32 42 59 48 38 33 27 28 27 25 24 24 23 23 28 46 53 58 65 79 80 87 87 87 92 96 98 97 95 94 94 94 92 89 86 88 85 86
44 34 33 30 25 31 33 31 36 36 36 29 22 24 26 23 23 23 21 20 20 30 56 62 69 81 78 84 89 89 94 96 91 90 90 92 93 92 90 88 85 84 86 89
60 39 40 52 42 30 33 30 28 37 29 23 22 22 22 26 22 23 23 26 31 40 60 65 76 76 85 83 82 83 85 85 86 86 89 90 88 84 82 89 92 94 93 91
77 64 64 38 26 28 31 28 24 22 22 20 19 20 21 22 23 27 36 40 48 67 79 79 78 77 76 72 75 75 74 76 73 73 74 72 74 80 90 93 92 94 93 90
71 62 52 37 32 34 34 33 27 25 23 20 18 24 36 30 33 42 46 57 70 77 76 80 76 73 71 71 69 70 74 74 70 69 70 76 81 87 89 91 93 92 92 93
88 74 69 54 35 29 30 46 28 27 30 27 28 46 38 38 48 55 57 61 66 69 69 71 72 67 68 69 70 71 70 68 66 69 74 81 84 87 90 87 82 89 88 88
98 94 78 45 31 30 51 50 31 31 29 34 34 43 38 47 53 52 53 58 62 63 67 67 62 62 66 68 72 68 68 71 76 78 82 84 83 86 88 88 85 87 83 86
94 98 91 57 42 40 46 35 33 32 33 41 42 47 45 50 50 50 54 57 58 63 66 65 62 61 68 72 70 70 76 78 76 75 70 75 86 84 74 76 83 88 90 95
73 79 61 59 61 54 42 43 50 46 40 45 52 56 53 54 54 52 54 59 58 63 66 66 63 60 68 74 73 73 75 78 78 68 65 60 60 72 77 82 82 85 84 92
72 57 41 33 47 49 58 48 42 38 43 45 51 51 49 55 54 53 57 58 61 65 69 70 65 63 70 72 70 72 64 56 59 58 61 57 58 66 72 82 84 84 84 89
63 50 44 44 43 50 50 49 45 39 40 40 57 58 51 53 53 52 54 57 62 68 72 72 68 69 68 70 60 51 55 59 62 65 61 66 71 66 70 77 80 84 90 87
80 50 53 46 43 55 49 44 39 47 43 36 51 54 52 53 52 51 57 65 65 69 68 68 67 69 68 61 57 62 60 64 77 75 64 56 67 68 72 69 69 68 75 83
44 42 52 54 48 61 52 49 48 51 44 44 43 51 50 53 52 65 62 64 67 69 64 62 58 59 64 65 64 68 74 69 75 70 70 74 72 77 86 80 72 69 67 66
62 60 54 65 62 60 56 54 55 51 50 49 51 53 55 58 61 62 64 65 60 57 54 53 53 58 58 58 61 66 72 80 78 80 79 80 80 84 85 88 93 90 70 67
70 66 67 64 59 58 57 58 60 63 67 68 63 67 62 64 67 69 63 54 50 51 50 50 57 62 68 74 73 78 81 85 86 87 88 88 86 87 84 83 83 85 88 79
73 70 68 73 71 62 62 66 72 82 81 78 75 75 70 67 66 63 58 56 65 70 66 77 71 77 76 79 83 86 91 94 92 93 94 94 92 90 86 85 85 86 88 90
89 94 88 88 81 91 89 85 85 84 84 85 85 80 78 80 81 83 83 82 87 89 88 91 95 92 94 93 91 92 94 96 96 95 94 93 93 89 83 87 88 88 93 94
78 82 86 89 92 94 95 94 92 91 92 89 90 90 91 91 94 94 93 91 93 95 95 96 95 95 96 96 96 95 95 95 95 95 95 95 87 85 88 89 89 90 92 90
94 93 91 90 91 94 94 94 94 92 92 91 91 94 93 94 95 96 95 94 95 94 97 95 95 95 95 95 94 95 96 96 94 90 88 89 94 92 93 96 95 95 93 94
89 90 92 94 91 90 93 95 92 94 96 94 94 94 95 95 95 95 94 95 96 95 95 94 94 94 94 94 94 93 95 95 90 92 94 90 95 97 94 93 95 97 98 98
96 95 95 95 96 96 96 95 93 95 96 94 93 95 95 96 95 95 93 91 96 96 95 94 92 92 90 92 93 96 96 97 97 97 97 98 97 97 97 97 98 98 99 98
95 95 96 95 94 95 95 94 94 94 94 95 95 95 94 95 95 95 96 92 94 95 93 93 92 94 93 96 94 96 96 95 94 95 97 97 97 98 99 98 99 99 98 98
96 96 95 95 94 96 94 95 95 94 95 95 95 95 94 95 94 93 94 95 93 94 91 94 94 88 95 96 95 94 93 94 97 97 97 96 97 98 98 99 98 99 100 99
95 95 96 96 88 86 92 95 92 94 94 94 95 96 93 94 95 94 94 95 95 93 93 91 88 87 94 96 96 96 96 98 99 98 97 95 99 100 98 99 100 99 99 100
94 93 93 93 91 93 93 94 91 91 90 90 91 90 88 90 92 95 91 94 89 90 93 90 90 93 93 94 95 97 98 98 98 99 98 99 100 100 100 100 99 99 99 100
91 90 90 90 89 89 88 80 91 92 86 92 94 94 94 94 94 93 92 92 94 94 95 98 96 96 96 95 98 99 99 99 98 99 100 100 100 100 100 99 99 100 100 100
82 80 79 83 81 81 84 89 92 93 94 94 95 94 93 92 92 91 94 94 92 93 96 97 95 96 95 97 97 99 100 100 100 99 100 100 100 100 100 100 100 100 100 100

GFSNGP_sfc_rhum_054.txt.gz
RH
35 32 31 30 35 36 37 43 53 46 47 38 37 33 30 26 27 25 25 27 44 46 55 65 74 60 52 63 76 76 78 79 95 95 94 95 91 97 97 96 94 91 91 92
52 36 35 37 30 33 35 38 41 41 46 33 28 30 30 29 27 25 26 27 34 46 56 70 81 77 75 77 80 80 84 92 96 98 97 98 97 96 95 93 93 89 91 91
58 42 38 54 42 38 33 38 39 48 42 32 31 31 30 30 28 28 26 27 29 41 60 76 84 86 94 95 96 93 96 96 96 95 96 97 95 93 94 94 95 95 94 91
80 68 69 40 28 31 34 30 34 28 25 26 26 26 27 26 25 30 29 26 30 55 78 87 89 91 93 92 93 94 94 93 93 94 95 92 88 88 89 91 90 91 91 87
88 70 52 42 36 37 41 38 30 26 26 24 22 29 34 28 29 28 33 46 68 83 90 92 90 86 85 87 85 88 89 89 87 85 87 88 88 89 88 93 94 94 92 93
95 92 67 52 37 35 34 56 32 30 35 32 31 45 38 33 42 47 55 72 87 90 91 90 88 80 81 83 84 85 84 82 80 83 85 88 91 93 94 91 91 92 94 93
98 99 82 57 48 32 50 48 37 35 36 30 37 40 32 40 55 60 68 77 83 82 84 85 79 76 80 81 82 77 74 75 79 82 85 86 89 88 89 92 94 96 95 90
98 99 91 59 49 47 58 60 42 42 41 42 41 37 46 52 60 63 69 75 77 82 82 79 74 74 79 84 79 77 81 85 85 85 80 82 89 95 93 92 92 95 96 97
90 93 59 63 58 71 58 56 55 58 49 46 53 48 54 59 62 62 66 72 73 76 77 78 74 72 79 86 80 81 82 85 85 83 86 89 92 92 86 85 91 94 92 95
80 62 58 49 57 61 57 56 54 54 48 50 51 56 58 61 63 62 64 66 71 70 75 80 75 73 79 78 76 80 86 86 82 80 75 75 74 81 84 90 90 92 92 94
70 57 49 43 41 43 50 57 56 52 49 50 47 57 56 62 62 58 60 66 65 70 74 79 78 79 76 77 73 71 68 67 72 75 74 71 69 75 80 85 83 84 90 90
78 54 55 49 41 42 46 46 42 56 52 52 52 53 58 62 57 57 62 71 71 74 77 80 78 80 75 64 61 65 68 72 77 78 73 58 60 73 77 78 80 82 82 86
79 75 58 62 64 61 55 56 55 55 52 55 54 56 60 64 65 73 72 73 74 77 68 68 72 75 70 66 64 67 71 71 75 74 74 73 74 78 87 82 74 75 80 81
75 74 74 72 72 65 60 59 62 63 68 69 66 59 68 71 70 74 76 67 59 58 62 65 68 71 67 66 69 75 77 80 79 81 83 86 86 89 90 92 95 94 85 72
81 77 80 76 67 68 69 68 76 76 75 76 71 76 74 74 68 64 58 55 59 63 67 70 77 80 76 77 75 80 82 87 90 93 93 93 93 94 95 96 96 96 93 87
78 84 82 87 85 82 80 78 82 85 82 80 80 81 77 74 76 78 77 75 81 90 87 91 90 93 92 89 87 90 93 96 95 94 94 95 96 96 96 96 96 96 96 94
91 94 93 94 94 93 92 86 85 86 86 86 84 81 79 80 82 85 86 86 90 94 94 94 96 96 96 96 95 95 95 96 96 96 95 96 96 96 95 96 96 95 95 93
86 88 88 90 93 93 93 90 89 88 89 86 90 90 90 91 94 94 94 93 94 95 95 96 96 96 96 96 95 95 95 95 95 96 94 95 95 95 96 96 95 95 96 94
87 91 92 87 88 91 92 90 91 91 92 89 90 94 95 94 95 95 95 94 94 94 96 95 95 94 94 95 93 93 95 95 95 94 94 95 96 96 96 96 96 96 96 96
91 90 86 90 92 94 94 96 95 95 96 94 94 94 95 95 95 94 92 95 95 95 95 95 92 93 93 93 93 92 94 95 95 95 96 96 97 97 97 95 96 96 97 96
96 95 95 94 96 95 95 96 94 95 96 95 94 95 95 95 95 94 90 90 96 94 94 94 92 92 92 91 91 95 96 96 96 96 96 96 96 96 97 97 98 98 99 98
95 95 96 95 94 95 95 95 94 95 94 94 94 94 93 95 94 94 94 92 93 93 91 91 91 94 93 93 92 95 93 93 94 94 95 96 96 97 97 98 99 99 100 100
96 96 95 95 94 96 94 94 95 94 94 94 94 94 94 94 93 90 92 93 91 92 88 94 94 93 91 92 93 94 95 94 95 96 97 98 99 100 99 98 98 98 100 100
94 94 95 96 92 86 91 94 92 93 93 93 94 95 89 92 94 90 90 89 87 88 91 93 89 87 87 92 95 96 98 98 98 100 100 100 100 100 100 100 100 100 100 100
94 93 92 92 89 93 92 86 84 84 85 87 87 86 86 87 93 96 94 93 91 94 95 94 93 95 97 97 98 98 100 100 100 100 100 100 100 100 100 100 100 100 100 100
90 89 86 87 88 88 86 85 92 91 87 92 94 94 95 93 93 92 92 92 94 94 95 95 93 94 97 98 99 100 100 100 100 100 100 100 100 100 100 100 100 100 100 100
86 84 83 84 82 87 92 91 94 96 95 94 96 95 95 96 95 93 95 96 96 97 98 99 98 99 100 100 100 100 100 100 100 100 100 100 100 100 100 100 100 100 100 100

GFSNGP_sfc_rhum_060.txt.gz
RH
73 60 52 43 41 42 44 49 54 47 52 39 37 37 36 34 34 34 30 29 44 56 60 64 70 69 66 69 73 76 77 74 76 75 73 78 85 86 89 90 87 85 94 98
72 66 63 63 42 40 41 45 48 46 48 38 36 37 39 37 37 36 32 29 30 46 54 60 64 67 68 69 72 74 79 79 75 76 78 82 88 90 92 92 93 92 98 98
91 79 72 74 59 48 41 39 43 48 45 37 40 41 40 37 38 35 33 32 32 34 45 48 55 61 67 69 75 79 78 78 79 79 81 87 90 93 93 95 98 98 98 98
98 80 94 61 43 48 49 42 42 43 43 36 38 35 36 36 38 39 38 33 33 31 40 53 60 68 70 75 78 82 83 83 85 85 88 92 96 97 99 99 98 98 98 99
98 88 71 54 49 54 68 58 42 42 37 33 32 33 34 29 32 32 35 40 39 37 35 44 74 91 89 92 92 92 92 93 95 93 94 99 98 99 99 99 99 99 98 98
98 96 88 61 62 61 66 60 54 52 46 43 38 53 43 29 32 33 38 42 40 48 59 76 91 94 94 97 96 95 96 97 98 98 98 98 99 98 98 98 98 96 98 98
93 84 84 70 66 65 81 59 81 76 68 61 56 49 45 46 38 42 49 61 82 87 89 88 96 94 95 98 97 98 96 97 98 97 98 97 97 96 95 95 95 96 97 96
97 99 93 65 71 74 70 82 71 65 73 65 61 59 59 57 53 50 48 68 89 91 93 97 96 95 98 99 94 91 92 95 93 92 89 89 92 94 92 92 96 97 96 95
85 87 69 73 64 68 79 76 71 65 58 63 70 59 61 58 62 67 71 79 93 94 97 96 95 94 97 98 94 92 89 91 92 93 93 93 94 95 96 94 95 96 93 93
76 62 67 60 58 59 64 71 54 47 52 59 67 64 66 68 70 74 82 88 91 92 95 96 93 94 95 93 91 92 92 91 89 91 92 92 92 92 94 96 95 92 90 88
79 80 80 74 77 81 79 72 54 42 52 61 65 60 75 81 80 81 84 86 88 92 94 93 93 95 96 94 88 92 87 85 87 88 86 88 90 89 91 90 88 90 88 84
89 94 94 90 84 84 88 83 75 74 70 69 75 81 81 75 77 79 86 87 86 89 89 86 84 84 88 87 85 88 91 91 92 90 87 84 86 92 92 90 87 85 84 87
85 84 89 88 90 79 82 79 75 74 72 74 68 69 79 75 73 77 75 76 79 80 78 78 79 81 79 82 84 87 87 81 81 80 79 81 84 86 91 96 96 96 96 95
75 83 92 92 95 82 80 79 73 70 71 74 73 73 77 80 79 84 88 87 83 84 85 84 85 87 83 79 80 82 82 86 86 88 89 92 94 96 95 94 95 96 95 92
84 80 81 83 78 80 78 77 80 84 80 81 80 84 84 88 90 89 84 83 84 88 92 91 90 90 82 82 82 85 87 91 93 96 97 97 97 96 96 95 95 95 95 95
85 85 80 87 85 83 82 83 86 88 84 83 83 84 83 81 82 84 82 80 84 90 88 93 91 95 93 89 91 94 95 96 96 96 96 96 96 96 95 96 96 96 95 95
95 88 88 90 93 89 88 84 84 85 82 83 84 81 79 80 80 84 88 87 90 94 94 94 96 96 96 96 96 95 95 95 95 94 94 94 95 95 95 95 95 94 95 96
84 90 88 89 92 92 88 83 86 85 85 85 89 90 91 91 93 93 94 94 91 92 95 96 95 95 95 95 95 94 94 94 93 94 94 94 94 93 94 94 94 94 95 95
88 90 90 88 91 91 90 88 89 90 92 92 90 94 94 94 94 95 93 92 93 92 96 95 95 94 94 95 93 93 94 94 93 92 92 92 94 93 94 95 95 95 95 94
92 91 90 91 92 93 94 96 95 95 95 93 92 92 94 95 94 93 90 94 95 95 95 94 92 92 92 91 89 89 92 92 90 93 93 94 95 96 95 94 95 96 98 98
95 95 95 94 95 94 95 95 94 95 95 94 92 94 95 95 94 88 88 90 96 94 93 92 89 89 85 84 84 92 92 93 94 95 95 96 95 97 97 98 100 100 100 100
95 95 95 95 94 95 95 95 95 95 94 94 94 94 93 94 93 92 94 93 92 89 84 85 86 91 87 87 87 92 92 92 94 94 96 96 97 99 100 100 100 100 100 100
96 95 94 94 94 95 94 94 95 94 94 94 94 95 94 93 89 89 93 86 81 84 84 92 92 93 93 94 95 95 95 96 97 98 99 100 100 100 100 100 100 100 100 100
95 95 95 95 94 90 92 95 93 94 94 92 94 90 85 92 94 88 89 93 94 95 96 97 97 99 97 98 98 100 100 100 100 100 100 100 100 100 100 100 100 100 100 100
94 94 94 92 88 91 89 85 85 85 86 86 87 87 90 91 95 97 96 96 96 94 98 99 100 100 99 100 100 100 100 100 100 100 100 100 100 100 100 100 100 100 100 100
89 89 89 89 90 89 87 83 92 92 89 95 95 96 97 95 94 93 94 94 94 97 98 99 100 100 100 100 100 100 100 99 100 100 100 100 100 100 100 100 100 100 100 100
88 88 86 89 90 92 93 93 96 100 100 100 98 98 98 99 99 97 100 100 100 100 100 100 100 100 100 100 100 100 100 100 100 100 100 100 100 100 100 100 100 100 100 100